Powrót do katalogu

STARLINK-32305

AktywnyŁącznośćVLEO
NORAD 61523·PAYLOAD·🇺🇸 United States

Wystrzelony Oct 15, 2024 z Cape Canaveral Space Force Station

Loading…

Następne Przeloty (najbliższe 24 godziny)

TLE

ŚwieżeSource: CelesTrak SupGP

Epoka: Sep 14, 2026, 22:51 UTC

1 61523C 24183Q   26257.95256944  .00001249  00000+0  36911-4 0  2577
2 61523  53.1592 341.7087 0001174  83.3163 233.8204 15.34380083    19

Śledź STARLINK-32305 w czasie rzeczywistym z AllMySat

Download on the App Store